Lapse_Rate
1.1 3.7 3.9 3.9 5.1 6.0 6.1 6.1 5.9 5.3 5.1 5.6 5.5 6.0 8.0 8.4 8.9 9.2 9.3 9.4 9.3 9.1 9.2 9.2 9.2 9.1 9.0
5.2 5.8 6.0 4.9 4.1 5.0 5.4 5.2 5.2 4.3 4.9 5.4 5.6 6.1 6.3 6.5 7.3 8.9 9.3 9.3 9.3 9.3 9.4 9.3 9.4 9.4 9.4
5.0 5.3 5.3 5.2 5.7 8.3 7.7 6.7 6.9 5.8 6.3 5.8 5.7 6.0 5.8 6.2 6.7 7.5 8.2 8.6 8.9 9.2 9.3 9.2 9.2 9.3 9.3
6.3 7.7 8.7 9.3 9.4 8.8 9.1 9.5 9.4 7.7 7.3 6.6 6.0 5.5 5.6 6.2 6.2 6.1 6.0 6.3 6.9 7.4 8.5 9.2 9.2 9.3 9.3
8.5 8.9 8.9 9.1 9.0 9.3 9.1 9.4 9.2 9.1 8.8 9.2 9.1 8.7 7.5 6.8 6.3 6.2 6.5 6.7 6.9 8.1 9.2 9.2 9.1 9.0 9.0
8.4 8.6 8.9 9.2 9.4 9.2 8.9 8.7 8.1 7.7 9.5 9.4 9.3 9.5 8.7 7.4 6.6 6.2 6.3 6.5 7.0 9.1 9.1 9.1 9.0 8.9 9.0
8.7 9.0 9.0 9.4 8.4 8.0 8.4 8.3 8.3 9.0 9.4 9.0 8.0 9.1 8.8 8.7 7.1 6.3 6.3 6.4 6.7 7.3 8.8 9.2 9.2 9.1 9.1
8.5 8.6 9.0 9.4 9.4 8.9 8.9 9.0 9.3 9.3 9.6 8.7 8.1 9.3 9.6 8.7 7.4 6.6 6.4 6.8 7.0 7.3 8.4 9.3 9.3 9.2 9.2
6.7 6.8 6.7 6.9 7.3 7.8 7.7 8.3 7.7 6.5 7.8 9.0 8.5 9.1 8.4 6.7 7.1 7.6 6.8 6.4 6.8 7.1 7.4 8.2 9.1 9.1 8.9
7.6 7.3 7.2 7.2 6.5 6.8 6.7 5.5 5.6 7.1 8.8 7.4 7.4 8.3 7.9 7.2 7.7 7.3 6.6 7.0 6.9 6.8 6.4 6.6 6.9 8.9 8.9
7.6 7.6 7.5 7.4 7.2 6.9 6.4 5.6 5.2 5.0 5.7 7.8 7.2 6.5 7.5 7.7 6.8 7.0 6.9 6.4 7.7 7.4 7.5 6.7 6.3 7.0 7.1
6.5 6.4 6.2 5.9 5.8 5.3 4.7 4.6 5.0 4.7 4.3 4.8 4.7 4.7 5.3 5.3 5.9 5.9 6.3 6.1 6.4 5.8 6.8 7.0 7.1 7.0 7.6
5.9 5.7 5.4 4.7 3.7 4.1 4.3 4.3 4.1 3.7 3.7 3.7 4.0 4.0 4.6 4.8 5.3 4.5 5.3 5.0 5.0 5.2 5.7 6.5 6.7 6.9 6.5
5.4 5.0 4.7 4.5 4.6 5.0 4.2 4.2 3.5 3.8 5.3 5.0 5.0 4.7 4.3 4.7 5.5 4.8 4.9 6.6 5.1 5.5 6.2 6.3 6.1 6.1 6.0
4.5 4.3 4.5 4.8 4.7 5.1 4.6 4.4 4.7 4.4 4.5 5.5 6.1 6.7 6.1 5.5 4.1 5.3 5.1 5.6 5.8 6.0 6.7 6.6 6.2 5.9 5.6
3.8 3.9 3.8 4.0 4.2 4.5 5.5 5.9 5.7 5.2 5.3 5.8 6.1 6.1 7.4 7.9 6.8 6.2 7.0 7.2 7.4 7.5 7.1 7.0 6.7 6.6 7.6
3.6 3.6 3.6 3.9 4.8 4.9 5.6 6.4 6.9 6.6 7.0 7.2 7.4 7.6 7.4 7.5 8.8 9.3 7.7 7.4 7.1 6.4 6.1 7.2 7.1 5.0 6.8
Wind_Speed
2 4 6 9 12 13 15 16 17 18 21 21 21 22 24 25 25 24 26 27 28 27 29 29 29 30 31
5 4 9 9 11 11 13 16 16 19 20 22 23 23 23 23 23 24 26 27 27 28 29 30 31 32 34
5 6 7 7 9 10 10 14 16 19 19 20 21 21 23 23 25 27 28 28 28 29 29 31 31 32 33
6 7 8 7 7 9 9 8 9 15 17 19 19 20 23 24 26 26 26 26 26 27 27 29 30 31 32
6 7 7 7 8 8 9 9 11 10 9 9 13 17 19 22 22 22 22 24 26 27 29 30 31 31 32
7 8 10 8 8 7 9 9 9 10 7 11 15 11 15 19 23 27 29 29 28 28 29 29 29 29 30
10 10 10 9 7 9 10 8 9 11 11 11 11 11 15 19 24 28 30 30 29 27 26 27 28 28 27
9 10 9 10 9 8 10 11 11 11 10 10 11 11 12 19 26 29 29 28 27 27 27 28 29 29 29
12 14 15 17 15 8 8 8 9 11 10 9 9 10 11 12 18 18 21 23 27 30 30 30 29 29 25
7 11 11 11 11 9 6 7 8 7 3 3 9 9 5 9 8 15 18 21 25 28 30 28 28 15 10
7 6 6 6 5 7 9 6 7 9 12 7 7 9 7 9 9 9 11 13 14 17 23 25 24 18 10
6 6 6 6 6 8 13 14 14 13 21 14 6 8 9 12 11 10 9 11 11 11 9 17 21 23 24
6 7 6 7 11 9 12 14 14 17 19 18 10 11 9 10 12 14 12 9 11 10 9 9 9 9 10
6 7 7 7 8 8 9 9 9 9 10 15 15 11 11 11 11 13 12 8 10 10 10 10 10 9 11
6 7 7 7 8 8 8 8 9 12 11 9 11 13 11 14 14 11 13 12 11 12 11 12 11 11 11
7 7 7 8 8 8 7 8 10 11 11 11 10 10 9 10 22 14 11 11 11 11 10 11 12 9 9
7 7 7 8 10 8 8 9 10 11 11 10 9 10 12 12 9 14 11 11 12 12 10 10 12 12 10
Wind_Direction
223 247 263 246 263 282 287 287 286 283 288 294 295 291 290 290 288 288 287 287 287 288 283 281 280 280 282
225 251 269 291 298 290 291 288 290 291 294 295 292 293 290 288 290 288 286 286 285 285 283 281 281 283 282
263 282 270 267 281 285 292 290 290 290 295 296 295 296 294 292 289 287 287 287 286 285 283 283 282 281 279
272 279 276 277 282 281 293 298 299 302 301 294 294 295 291 288 286 286 286 285 285 284 283 280 277 275 275
270 278 290 289 294 304 297 308 304 304 298 301 306 300 294 293 291 287 285 286 285 284 282 282 281 278 275
285 277 290 301 299 299 306 307 312 308 305 302 298 295 294 291 290 290 289 291 290 287 283 281 280 279 279
292 291 294 295 311 289 294 289 283 287 296 293 297 295 292 290 290 290 290 291 289 288 287 284 282 280 277
286 287 285 288 292 283 290 290 287 286 296 288 291 290 292 288 290 289 287 285 285 286 286 285 285 283 278
283 287 290 292 291 292 280 291 295 298 301 285 285 303 300 291 285 283 285 282 283 285 288 288 286 282 280
302 297 289 285 280 268 279 283 294 297 323 278 299 317 295 291 286 298 289 284 285 286 285 284 283 281 275
299 299 298 296 294 287 281 270 273 268 278 300 298 295 276 288 285 288 287 284 283 288 289 286 280 272 265
305 305 310 307 301 299 293 283 273 265 280 286 273 276 281 286 285 287 283 288 286 280 279 282 284 279 270
303 303 307 305 303 293 293 291 280 274 270 263 255 268 261 267 276 287 295 297 288 277 273 272 272 275 276
301 301 300 295 297 305 307 310 307 297 277 270 253 251 268 266 267 278 283 284 290 286 283 280 275 266 263
299 299 300 300 300 309 304 297 291 303 304 296 278 260 252 258 277 270 281 282 282 288 285 278 272 267 260
301 299 298 301 304 306 296 292 298 297 297 299 305 298 283 256 241 269 272 274 282 285 281 282 285 275 261
297 296 293 293 304 299 295 293 296 299 295 289 291 298 297 297 296 273 288 289 291 289 283 278 282 286 279